Starlink 35416

operational
NORAD ID: 66248 Int'l Des: 2025-245 Owner: SPXS Country: US Constellation: starlink
LEOCIRCULAR

About Starlink 35416

Description loading...

Live Position

Loading 3D Globe...

Upcoming Passes

Altitude History

Altitude vs Time

uPlot chart will show altitude changes over time

Two-Line Element Set

1 66248U 25245Q 25310.58334491 -.00003503 11075-4 00000+0 0 9991
2 66248 53.1535 143.6990 0000579 79.2479 39.6840 15.91893018 2299
Epoch: Nov 6, 2025 • Age: 14 hours

Current Status

Altitude 303.1 km
Velocity 7.73 km/s
Sub-Earth Point -20.99°S, 128.16°W
Launch Date Oct 29, 2025
Age 8 days
Type internet

Technical Details

Classification Payload
Mass 575.00 kg
Dry Mass 530.00 kg
Total Mass 575.00 kg
Length 0.30 m
Diameter 4.10 m
Span 29.00 m
Shape Box + pan
Manufacturer SPXS
Bus Type Starlink V2MO
Phase Status In Orbit
Owner/State SPXS/US

Large Constellations

Loading constellations...